H1 CPF 2 NER 2022 4 2 9 092 01 glonass137 H2 1705501 9137 42939 2022 4 2 0 0 0 2022 4 5 23 45 0 900 1 1 0 0 0 1 H9 10 0 59671 0.00000 0 -16485514.142 -8226823.952 17640647.690 10 0 59671 900.00000 0 -17799460.542 -9788054.888 15425789.493 10 0 59671 1800.00000 0 -19028228.627 -11033872.829 12911247.479 10 0 59671 2700.00000 0 -20111422.588 -11960526.207 10145823.859 10 0 59671 3600.00000 0 -20991183.611 -12576866.836 7183218.268 10 0 59671 4500.00000 0 -21614687.329 -12903723.623 4080985.530 10 0 59671 5400.00000 0 -21936450.347 -12972778.306 899415.977 10 0 59671 6300.00000 0 -21920347.880 -12824991.296 -2299639.717 10 0 59671 7200.00000 0 -21541256.477 -12508644.831 -5453977.781 10 0 59671 8100.00000 0 -20786251.605 -12077086.964 -8502256.529 10 0 59671 9000.00000 0 -19655308.538 -11586272.728 -11385195.133 10 0 59671 9900.00000 0 -18161476.118 -11092207.380 -14046731.815 10 0 59671 10800.00000 0 -16330515.256 -10648400.759 -16435118.350 10 0 59671 11700.00000 0 -14200016.624 -10303441.222 -18503929.148 10 0 59671 12600.00000 0 -11818034.069 -10098792.318 -20212965.006 10 0 59671 13500.00000 0 -9241290.506 -10066905.785 -21529034.022 10 0 59671 14400.00000 0 -6533030.894 -10229730.818 -22426594.723 10 0 59671 15300.00000 0 -3760611.591 -10597682.687 -22888249.258 10 0 59671 16200.00000 0 -992926.148 -11169114.238 -22905077.571 10 0 59671 17100.00000 0 1702225.872 -11930312.602 -22476806.529 10 0 59671 18000.00000 0 4260718.112 -12856021.259 -21611811.118 10 0 59671 18900.00000 0 6624518.233 -13910465.554 -20326948.014 10 0 59671 19800.00000 0 8743850.652 -15048838.621 -18647224.903 10 0 59671 20700.00000 0 10579012.149 -16219185.341 -16605312.066 10 0 59671 21600.00000 0 12101766.093 -17364605.197 -14240905.669 10 0 59671 22500.00000 0 13296258.441 -18425681.534 -11599955.020 10 0 59671 23400.00000 0 14159418.676 -19343035.015 -8733768.758 10 0 59671 24300.00000 0 14700830.436 -20059893.880 -5698017.300 10 0 59671 25200.00000 0 14942078.703 -20524572.741 -2551650.908 10 0 59671 26100.00000 0 14915602.373 -20692755.428 644245.430 10 0 59671 27000.00000 0 14663101.761 -20529485.617 3827637.901 10 0 59671 27900.00000 0 14233569.177 -20010781.176 6936747.416 10 0 59671 28800.00000 0 13681026.475 -19124804.045 9911247.141 10 0 59671 29700.00000 0 13062065.626 -17872536.070 12693430.784 10 0 59671 30600.00000 0 12433296.453 -16267931.918 15229329.036 10 0 59671 31500.00000 0 11848809.340 -14337542.133 17469752.633 10 0 59671 32400.00000 0 11357759.880 -12119621.379 19371242.270 10 0 59671 33300.00000 0 11002177.090 -9662758.262 20896907.415 10 0 59671 34200.00000 0 10815087.319 -7024083.015 22017138.312 10 0 59671 35100.00000 0 10819032.623 -4267126.557 22710177.946 10 0 59671 36000.00000 0 11025045.905 -1459418.819 22962543.371 10 0 59671 36900.00000 0 11432126.011 1330075.043 22769288.484 10 0 59671 37800.00000 0 12027235.216 4033575.301 22134103.262 10 0 59671 38700.00000 0 12785819.739 6587057.586 21069247.300 10 0 59671 39600.00000 0 13672832.174 8932666.341 19595318.522 10 0 59671 40500.00000 0 14644213.689 11020872.470 17740860.852 10 0 59671 41400.00000 0 15648774.532 12812286.233 15541817.645 10 0 59671 42300.00000 0 16630394.437 14279050.420 13040840.668 10 0 59671 43200.00000 0 17530450.858 15405756.235 10286467.250 10 0 59671 44100.00000 0 18290372.955 16189844.079 7332180.938 10 0 59671 45000.00000 0 18854213.591 16641472.845 4235373.586 10 0 59671 45900.00000 0 19171130.413 16782863.766 1056228.968 10 0 59671 46800.00000 0 19197670.624 16647146.997 -2143450.210 10 0 59671 47700.00000 0 18899762.027 16276760.199 -5301448.536 10 0 59671 48600.00000 0 18254325.237 15721467.483 -8356353.267 10 0 59671 49500.00000 0 17250437.863 15036083.206 -11248754.479 10 0 59671 50400.00000 0 15890000.436 14277997.660 -13922405.816 10 0 59671 51300.00000 0 14187875.003 13504610.044 -16325322.660 10 0 59671 52200.00000 0 12171489.535 12770777.903 -18410795.922 10 0 59671 53100.00000 0 9879924.017 12126391.349 -20138301.424 10 0 59671 54000.00000 0 7362515.762 11614174.832 -21474287.247 10 0 59671 54900.00000 0 4677041.688 11267809.398 -22392823.961 10 0 59671 55800.00000 0 1887552.962 11110454.572 -22876105.424 10 0 59671 56700.00000 0 -938048.273 11153731.971 -22914790.926 10 0 59671 57600.00000 0 -3730589.757 11397213.190 -22508182.488 10 0 59671 58500.00000 0 -6422260.742 11828433.201 -21664234.296 10 0 59671 59400.00000 0 -8949185.707 12423428.342 -20399394.406 10 0 59671 60300.00000 0 -11253834.013 13147776.027 -18738281.981 10 0 59671 61200.00000 0 -13287166.106 13958092.137 -16713206.388 10 0 59671 62100.00000 0 -15010428.028 14803922.908 -14363537.489 10 0 59671 63000.00000 0 -16396520.647 15629951.485 -11734939.207 10 0 59671 63900.00000 0 -17430887.612 16378426.074 -8878481.260 10 0 59671 64800.00000 0 -18111886.308 16991707.228 -5849646.204 10 0 59671 65700.00000 0 -18450627.591 17414826.708 -2707251.105 10 0 59671 66600.00000 0 -18470292.316 17597949.839 487695.050 10 0 59671 67500.00000 0 -18204954.649 17498637.274 3673175.876 10 0 59671 68400.00000 0 -17697962.742 17083810.529 6787370.877 10 0 59671 69300.00000 0 -16999945.858 16331338.086 9769853.878 10 0 59671 70200.00000 0 -16166532.628 15231174.865 12562763.313 10 0 59671 71100.00000 0 -15255877.000 13786006.570 15111921.718 10 0 59671 72000.00000 0 -14326096.333 12011371.207 17367882.869 10 0 59671 72900.00000 0 -13432729.487 9935251.883 19286886.636 10 0 59671 73800.00000 0 -12626321.687 7597156.895 20831703.589 10 0 59671 74700.00000 0 -11950237.405 5046724.529 21972353.471 10 0 59671 75600.00000 0 -11438792.814 2341909.458 22686684.244 10 0 59671 76500.00000 0 -11115785.900 -453175.117 22960800.937 10 0 59671 77400.00000 0 -10993485.717 -3270671.128 22789336.295 10 0 59671 78300.00000 0 -11072123.137 -6041546.239 22175558.064 10 0 59671 79200.00000 0 -11339904.569 -8698215.929 21131310.632 10 0 59671 80100.00000 0 -11773548.355 -11177109.236 19676791.742 10 0 59671 81000.00000 0 -12339321.763 -13421072.574 17840167.924 10 0 59671 81900.00000 0 -12994535.455 -15381512.465 15657035.294 10 0 59671 82800.00000 0 -13689433.066 -17020188.476 13169735.355 10 0 59671 83700.00000 0 -14369396.672 -18310582.066 10426538.297 10 0 59671 84600.00000 0 -14977375.364 -19238784.504 7480708.971 10 0 59671 85500.00000 0 -15456434.368 -19803866.901 4389473.392 10 0 59672 0.00000 0 -15752316.706 -20017717.202 1212905.978 10 0 59672 900.00000 0 -15815908.598 -19904351.414 -1987242.355 10 0 59672 1800.00000 0 -15605503.196 -19498728.306 -5148747.631 10 0 59672 2700.00000 0 -15088766.392 -18845118.565 -8210129.471 10 0 59672 3600.00000 0 -14244320.020 -17995097.494 -11111852.284 10 0 59672 4500.00000 0 -13062874.573 -17005246.929 -13797488.496 10 0 59672 5400.00000 0 -11547862.446 -15934664.086 -16214820.295 10 0 59672 6300.00000 0 -9715543.852 -14842383.144 -18316858.024 10 0 59672 7200.00000 0 -7594579.996 -13784818.890 -20062755.078 10 0 59672 8100.00000 0 -5225090.455 -12813340.546 -21418601.580 10 0 59672 9000.00000 0 -2657233.413 -11972078.097 -22358081.618 10 0 59672 9900.00000 0 50632.592 -11296053.412 -22862981.603 10 0 59672 10800.00000 0 2834129.404 -10809714.423 -22923540.369 10 0 59672 11700.00000 0 5625292.273 -10525933.538 -22538634.670 10 0 59672 12600.00000 0 8355154.491 -10445511.803 -21715796.907 10 0 59672 13500.00000 0 10956376.823 -10557208.966 -20471065.031 10 0 59672 14400.00000 0 13365813.133 -10838297.530 -18828667.739 10 0 59672 15300.00000 0 15526906.204 -11255616.848 -16820551.143 10 0 59672 16200.00000 0 17391814.903 -11767082.331 -14485756.082 10 0 59672 17100.00000 0 18923185.042 -12323585.725 -11869658.045 10 0 59672 18000.00000 0 20095490.986 -12871205.935 -9023084.464 10 0 59672 18900.00000 0 20895893.107 -13353636.808 -6001326.437 10 0 59672 19800.00000 0 21324576.325 -13714729.091 -2863064.074 10 0 59672 20700.00000 0 21394556.674 -13901038.978 330773.448 10 0 59672 21600.00000 0 21130965.146 -13864275.303 3518190.899 10 0 59672 22500.00000 0 20569839.947 -13563541.750 6637329.893 10 0 59672 23400.00000 0 19756478.819 -12967279.102 9627668.104 10 0 59672 24300.00000 0 18743421.488 -12054825.142 12431191.455 10 0 59672 25200.00000 0 17588147.595 -10817525.997 14993516.618 10 0 59672 26100.00000 0 16350587.211 -9259351.469 17264942.163 10 0 59672 27000.00000 0 15090548.615 -7396987.701 19201408.384 10 0 59672 27900.00000 0 13865171.204 -5259402.267 20765347.693 10 0 59672 28800.00000 0 12726510.103 -2886898.729 21926409.602 10 0 59672 29700.00000 0 11719353.312 -329698.826 22662046.874 10 0 59672 30600.00000 0 10879362.375 2353890.083 22957951.939 10 0 59672 31500.00000 0 10231613.999 5099647.450 22808335.429 10 0 59672 32400.00000 0 9789603.294 7839863.025 22216041.553 10 0 59672 33300.00000 0 9554750.137 10505912.107 21192497.887 10 0 59672 34200.00000 0 9516429.224 13030876.716 19757500.111 10 0 59672 35100.00000 0 9652522.574 15352104.859 17938835.255 10 0 59672 36000.00000 0 9930471.382 17413602.236 15771749.882 10 0 59672 36900.00000 0 10308783.209 19168157.319 13298272.765 10 0 59672 37800.00000 0 10738931.157 20579111.572 10566404.344 10 0 59672 38700.00000 0 11167565.019 21621701.104 7629188.070 10 0 59672 39600.00000 0 11538940.945 22283913.627 4543681.323 10 0 59672 40500.00000 0 11797466.590 22566824.947 1369845.775 10 0 59672 41400.00000 0 11890253.528 22484401.004 -1830621.082 10 0 59672 42300.00000 0 11769568.119 22062773.957 -4995489.955 10 0 59672 43200.00000 0 11395076.110 21339023.247 -8063215.331 10 0 59672 44100.00000 0 10735784.838 20359513.429 -10974138.204 10 0 59672 45000.00000 0 9771599.719 19177859.466 -13671651.744 10 0 59672 45900.00000 0 8494428.038 17852605.880 -16103306.600 10 0 59672 46800.00000 0 6908782.223 16444718.176 -18221833.884 10 0 59672 47700.00000 0 5031856.108 15014992.726 -19986065.614 10 0 59672 48600.00000 0 2893069.897 13621494.494 -21361734.740 10 0 59672 49500.00000 0 533101.892 12317130.457 -22322139.412 10 0 59672 50400.00000 0 -1997553.284 11147460.624 -22848658.891 10 0 59672 51300.00000 0 -4640440.559 10148838.208 -22931111.587 10 0 59672 52200.00000 0 -7331337.741 9346956.378 -22567948.726 10 0 59672 53100.00000 0 -10002695.510 8755861.859 -21766280.305 10 0 59672 54000.00000 0 -12586223.225 8377475.818 -20541733.182 10 0 59672 54900.00000 0 -15015513.596 8201641.163 -18918144.224 10 0 59672 55800.00000 0 -17228597.604 8206693.318 -16927094.577 10 0 59672 56700.00000 0 -19170324.000 8360529.492 -14607294.059 10 0 59672 57600.00000 0 -20794464.990 8622130.592 -12003827.524 10 0 59672 58500.00000 0 -22065460.958 8943470.912 -9167277.801 10 0 59672 59400.00000 0 -22959732.222 9271734.387 -6152742.157 10 0 59672 60300.00000 0 -23466503.824 9551743.326 -3018761.395 10 0 59672 61200.00000 0 -23588109.689 9728496.559 173817.456 10 0 59672 62100.00000 0 -23339764.323 9749709.331 3363022.608 10 0 59672 63000.00000 0 -22748812.511 9568247.211 6486960.059 10 0 59672 63900.00000 0 -21853489.308 9144350.833 9485013.570 10 0 59672 64800.00000 0 -20701243.114 8447557.079 12299018.766 10 0 59672 65700.00000 0 -19346692.734 7458235.179 14874388.613 10 0 59672 66600.00000 0 -17849304.551 6168672.417 17161168.548 10 0 59672 67500.00000 0 -16270887.328 4583663.011 19115001.219 10 0 59672 68400.00000 0 -14673009.523 2720574.465 20697982.612 10 0 59672 69300.00000 0 -13114447.012 608887.520 21879393.497 10 0 59672 70200.00000 0 -11648767.509 -1710772.390 22636292.634 10 0 59672 71100.00000 0 -10322152.096 -4188073.231 22953960.727 10 0 59672 72000.00000 0 -9171544.343 -6764825.556 22826186.841 10 0 59672 72900.00000 0 -8223203.717 -9377167.365 22255391.850 10 0 59672 73800.00000 0 -7491723.205 -11957995.284 21252586.355 10 0 59672 74700.00000 0 -6979551.811 -14439542.197 19837163.465 10 0 59672 75600.00000 0 -6677041.603 -16755995.297 18036529.831 10 0 59672 76500.00000 0 -6563017.058 -18846046.466 15885581.245 10 0 59672 77400.00000 0 -6605842.730 -20655269.263 13426032.179 10 0 59672 78300.00000 0 -6764944.151 -22138223.717 10705611.453 10 0 59672 79200.00000 0 -6992717.769 -23260201.102 7777138.969 10 0 59672 80100.00000 0 -7236749.059 -23998535.580 4697501.102 10 0 59672 81000.00000 0 -7442244.692 -24343427.630 1526544.494 10 0 59672 81900.00000 0 -7554575.284 -24298244.568 -1674090.079 10 0 59672 82800.00000 0 -7521820.310 -23879285.467 -4842170.591 10 0 59672 83700.00000 0 -7297206.482 -23115020.441 -7916089.367 10 0 59672 84600.00000 0 -6841335.209 -22044836.571 -10836067.050 10 0 59672 85500.00000 0 -6124103.727 -20717343.605 -13545320.643 10 0 59673 0.00000 0 -5126237.533 -19188311.428 -15991172.094 10 0 59673 900.00000 0 -3840367.576 -17518325.692 -18126076.634 10 0 59673 1800.00000 0 -2271607.067 -15770262.819 -19908547.330 10 0 59673 2700.00000 0 -437600.692 -14006688.030 -21303962.269 10 0 59673 3600.00000 0 1631955.594 -12287287.817 -22285235.525 10 0 59673 4500.00000 0 3896305.464 -10666443.692 -22833340.577 10 0 59673 5400.00000 0 6305093.151 -9191048.670 -22937676.248 10 0 59673 6300.00000 0 8800234.217 -7898657.302 -22596268.537 10 0 59673 7200.00000 0 11318118.764 -6816045.960 -21815804.842 10 0 59673 8100.00000 0 13792055.933 -5958242.571 -20611500.248 10 0 59673 9000.00000 0 16154858.510 -5328065.267 -19006798.657 10 0 59673 9900.00000 0 18341460.441 -4916188.105 -17032914.657 10 0 59673 10800.00000 0 20291458.809 -4701729.804 -14728225.003 10 0 59673 11700.00000 0 21951474.802 -4653339.554 -12137521.424 10 0 59673 12600.00000 0 23277235.636 -4730733.125 -9311139.218 10 0 59673 13500.00000 0 24235291.078 -4886613.552 -6303978.508 10 0 59673 14400.00000 0 24804293.358 -5068894.506 -3174437.161 10 0 59673 15300.00000 0 24975787.498 -5223131.792 16723.755 10 0 59673 16200.00000 0 24754479.610 -5295059.595 3207559.769 10 0 59673 17100.00000 0 24157972.557 -5233123.788 6336145.039 10 0 59673 18000.00000 0 23215980.674 -4990904.777 9341772.970 10 0 59673 18900.00000 0 21969057.060 -4529327.089 12166132.110 10 0 59673 19800.00000 0 20466887.197 -3818561.971 14754434.518 10 0 59673 20700.00000 0 18766220.763 -2839542.254 17056474.835 10 0 59673 21600.00000 0 16928528.297 -1585025.031 19027599.915 10 0 59673 22500.00000 0 15017480.671 -60156.641 20629570.699 10 0 59673 23400.00000 0 13096356.449 1717484.724 21831300.128 10 0 59673 24300.00000 0 11225484.917 3718371.802 22609453.423 10 0 59673 25200.00000 0 9459830.836 5902017.638 22948899.590 10 0 59673 26100.00000 0 7846820.997 8218431.730 22843005.712 10 0 59673 27000.00000 0 6424502.455 10609983.763 22293768.488 10 0 59673 27900.00000 0 5220108.477 13013598.899 21311780.292 10 0 59673 28800.00000 0 4249091.487 15363194.494 19916030.011 10 0 59673 29700.00000 0 3514662.754 17592258.038 18133541.917 10 0 59673 30600.00000 0 3007857.592 19636459.869 15998858.716 10 0 59673 31500.00000 0 2708122.983 21436192.267 13553378.005 10 0 59673 32400.00000 0 2584402.511 22938929.320 10844554.200 10 0 59673 33300.00000 0 2596672.623 24101308.946 7924980.708 10 0 59673 34200.00000 0 2697865.080 24890849.688 4851369.840 10 0 59673 35100.00000 0 2836093.862 25287230.037 1683450.101 10 0 59673 36000.00000 0 2957091.792 25283076.172 -1517197.549 10 0 59673 36900.00000 0 3006752.945 24884224.695 -4688341.345 10 0 59673 37800.00000 0 2933672.262 24109449.067 -7768314.273 10 0 59673 38700.00000 0 2691573.733 22989661.175 -10697219.190 10 0 59673 39600.00000 0 2241523.243 21566621.703 -13418099.194 10 0 59673 40500.00000 0 1553831.257 19891213.767 -15878049.866 10 0 59673 41400.00000 0 609563.727 18021352.674 -18029251.259 10 0 59673 42300.00000 0 -598403.622 16019619.971 -19829899.212 10 0 59673 43200.00000 0 -2064833.194 13950721.313 -21245017.899 10 0 59673 44100.00000 0 -3772099.825 11878874.817 -22247137.990 10 0 59673 45000.00000 0 -5690693.471 9865239.277 -22816827.555 10 0 59673 45900.00000 0 -7780230.085 7965489.471 -22943065.900 10 0 59673 46800.00000 0 -9990929.196 6227639.378 -22623453.530 10 0 59673 47700.00000 0 -12265497.071 4690203.480 -21864254.600 10 0 59673 48600.00000 0 -14541337.530 3380771.931 -20680271.377 10 0 59673 49500.00000 0 -16752998.751 2315057.865 -19094553.351 10 0 59673 50400.00000 0 -18834754.436 1496455.412 -17137946.735 10 0 59673 51300.00000 0 -20723212.141 916125.422 -14848493.103 10 0 59673 52200.00000 0 -22359840.300 553603.885 -12270688.697 10 0 59673 53100.00000 0 -23693308.708 377906.112 -9454618.785 10 0 59673 54000.00000 0 -24681544.983 349078.920 -6454983.779 10 0 59673 54900.00000 0 -25293421.339 420134.293 -3330036.017 10 0 59673 55800.00000 0 -25510001.314 539281.974 -140448.036 10 0 59673 56700.00000 0 -25325294.650 652365.875 3051865.556 10 0 59673 57600.00000 0 -24746489.002 705400.680 6184949.586 10 0 59673 58500.00000 0 -23793649.175 647100.909 9198009.569 10 0 59673 59400.00000 0 -22498896.820 431295.090 12032589.365 10 0 59673 60300.00000 0 -20905105.204 19122.652 14633702.408 10 0 59673 61200.00000 0 -19064163.905 -619079.565 16950894.668 10 0 59673 62100.00000 0 -17034886.013 -1502281.212 18939219.105 10 0 59673 63000.00000 0 -14880645.094 -2637716.350 20560103.231 10 0 59673 63900.00000 0 -12666840.276 -4020339.937 21782093.442 10 0 59673 64800.00000 0 -10458294.591 -5632806.704 22581462.347 10 0 59673 65700.00000 0 -8316694.271 -7445974.505 22942667.800 10 0 59673 66600.00000 0 -6298174.909 -9419912.442 22858655.101 10 0 59673 67500.00000 0 -4451154.073 -11505373.100 22330996.623 10 0 59673 68400.00000 0 -2814499.751 -13645669.010 21369866.042 10 0 59673 69300.00000 0 -1416110.157 -15778876.415 19993847.269 10 0 59673 70200.00000 0 -271963.343 -17840275.697 18229581.153 10 0 59673 71100.00000 0 614324.382 -19764927.698 16111255.992 10 0 59673 72000.00000 0 1251413.307 -21490278.997 13679950.936 10 0 59673 72900.00000 0 1659632.586 -22958687.649 10982844.165 10 0 59673 73800.00000 0 1869875.983 -24119763.790 8072300.540 10 0 59673 74700.00000 0 1922048.067 -24932426.727 5004856.069 10 0 59673 75600.00000 0 1863127.041 -25366591.833 1840118.735 10 0 59673 76500.00000 0 1744926.685 -25404415.808 -1360392.825 10 0 59673 77400.00000 0 1621652.891 -25041047.358 -4534449.700 10 0 59673 78300.00000 0 1547359.146 -24284851.181 -7620328.208 10 0 59673 79200.00000 0 1573409.722 -23157095.422 -10558016.141 10 0 59673 80100.00000 0 1746059.080 -21691115.482 -13290385.430 10 0 59673 81000.00000 0 2104251.047 -19930989.260 -15764307.790 10 0 59673 81900.00000 0 2677731.949 -17929779.500 -17931691.142 10 0 59673 82800.00000 0 3485558.404 -15747417.181 -19750416.289 10 0 59673 83700.00000 0 4535063.736 -13448314.791 -21185155.650 10 0 59673 84600.00000 0 5821327.428 -11098809.449 -22208058.295 10 0 59673 85500.00000 0 7327170.721 -8764542.795 -22799288.304 10 0 59674 0.00000 0 9023679.168 -6507886.989 -22947406.457 10 0 59674 900.00000 0 10871231.855 -4385522.521 -22649588.347 10 0 59674 1800.00000 0 12820992.509 -2446271.225 -21911674.978 10 0 59674 2700.00000 0 14816803.705 -729269.786 -20748055.516 10 0 59674 3600.00000 0 16797403.301 737438.181 -19181384.347 10 0 59674 4500.00000 0 18698871.726 1937835.277 -17242138.209 10 0 59674 5400.00000 0 20457208.095 2868350.998 -14968021.960 10 0 59674 6300.00000 0 22010927.756 3537753.914 -12403234.388 10 0 59674 7200.00000 0 23303572.807 3966521.362 -9597608.319 10 0 59674 8100.00000 0 24286030.718 4185714.673 -6605641.619 10 0 59674 9000.00000 0 24918564.108 4235408.604 -3485437.917 10 0 59674 9900.00000 0 25172466.700 4162742.339 -297577.777 10 0 59674 10800.00000 0 25031276.185 4019675.354 2896057.646 10 0 59674 11700.00000 0 24491493.254 3860543.724 6033487.447 10 0 59674 12600.00000 0 23562776.731 3739520.789 9053832.740 10 0 59674 13500.00000 0 22267606.747 3708089.966 11898495.977 10 0 59674 14400.00000 0 20640430.083 3812636.892 14512294.959 10 0 59674 15300.00000 0 18726323.411 4092262.844 16844529.624 10 0 59674 16200.00000 0 16579230.201 4576911.995 18849961.315 10 0 59674 17100.00000 0 14259844.543 5285891.830 20489685.997 10 0 59674 18000.00000 0 11833229.786 6226849.453 21731885.014 10 0 59674 18900.00000 0 9366270.525 7395247.505 22552439.436 10 0 59674 19800.00000 0 6925063.219 8774362.604 22935396.629 10 0 59674 20700.00000 0 4572353.165 10335807.444 22873280.297 10 0 59674 21600.00000 0 2365123.385 12040555.964 22367238.210 10 0 59674 22500.00000 0 352434.745 13840430.115 21427024.582 10 0 59674 23400.00000 0 -1426393.737 15679987.375 20070817.083 10 0 59674 24300.00000 0 -2943189.521 17498731.443 18324871.419 10 0 59674 25200.00000 0 -4181858.338 19233554.752 16223019.354 10 0 59674 26100.00000 0 -5138804.872 20821311.408 13806019.105 10 0 59674 27000.00000 0 -5822825.420 22201413.319 11120769.866 10 0 59674 27900.00000 0 -6254477.614 23318340.854 8219405.005 10 0 59674 28800.00000 0 -6464954.294 24123962.442 5158281.140 10 0 59674 29700.00000 0 -6494509.601 24579565.234 1996882.576 10 0 59674 30600.00000 0 -6390504.457 24657510.761 -1203337.536 10 0 59674 31500.00000 0 -6205154.773 24342445.157 -4380156.240 10 0 59674 32400.00000 0 -5993078.585 23632012.220 -7471796.154 10 0 59674 33300.00000 0 -5808746.903 22537038.570 -10418132.770 10 0 59674 34200.00000 0 -5703947.225 21081182.549 -13161869.356 10 0 59674 35100.00000 0 -5725368.092 19300061.197 -15649655.968 10 0 59674 36000.00000 0 -5912407.882 17239891.684 -17833130.271 10 0 59674 36900.00000 0 -6295301.348 14955704.097 -19669859.585 10 0 59674 37800.00000 0 -6893643.821 12509200.363 -21124165.812 10 0 59674 38700.00000 0 -7715376.049 9966348.791 -22167817.360 10 0 59674 39600.00000 0 -8756273.030 7394814.651 -22780574.944 10 0 59674 40500.00000 0 -9999958.893 4861333.716 -22950581.119 10 0 59674 41400.00000 0 -11418447.726 2429137.756 -22674586.473 10 0 59674 42300.00000 0 -12973188.081 155538.683 -21958008.509 10 0 59674 43200.00000 0 -14616567.812 -1910228.991 -20814822.469 10 0 59674 44100.00000 0 -16293816.605 -3728818.617 -19267286.400 10 0 59674 45000.00000 0 -17945226.804 -5272160.552 -17345505.934 10 0 59674 45900.00000 0 -19508599.862 -6524373.514 -15086847.231 10 0 59674 46800.00000 0 -20921816.134 -7482161.618 -12535209.361 10 0 59674 47700.00000 0 -22125420.460 -8154682.027 -9740170.226 10 0 59674 48600.00000 0 -23065115.234 -8562890.384 -6756022.531 10 0 59674 49500.00000 0 -23694056.398 -8738393.007 -3640718.491 10 0 59674 50400.00000 0 -23974855.984 -8721855.504 -454743.934 10 0 59674 51300.00000 0 -23881207.072 -8561036.063 2740056.212 10 0 59674 52200.00000 0 -23399062.880 -8308527.413 5881678.099 10 0 59674 53100.00000 0 -22527320.372 -8019303.530 8909161.198 10 0 59674 54000.00000 0 -21277979.595 -7748175.318 11763769.245 10 0 59674 54900.00000 0 -19675771.833 -7547263.127 14390126.972 10 0 59674 55800.00000 0 -17757271.930 -7463593.042 16737290.663 10 0 59674 56700.00000 0 -15569531.535 -7536918.580 18759732.149 10 0 59674 57600.00000 0 -13168289.808 -7797859.741 20418217.625 10 0 59674 58500.00000 0 -10615835.665 -8266438.022 21680564.763 10 0 59674 59400.00000 0 -7978609.775 -8951069.335 22522264.070 10 0 59674 60300.00000 0 -5324645.161 -9848057.692 22926952.963 10 0 59674 61200.00000 0 -2720951.865 -10941611.622 22886733.702 10 0 59674 62100.00000 0 -230953.249 -12204383.566 22402329.229 10 0 59674 63000.00000 0 2087920.652 -13598510.773 21483073.741 10 0 59674 63900.00000 0 4186383.626 -15077115.247 20146737.816 10 0 59674 64800.00000 0 6025099.186 -16586201.106 18419190.893 10 0 59674 65700.00000 0 7576067.519 -18066870.951 16333906.811 10 0 59674 66600.00000 0 8823536.295 -19457769.148 13931321.203 10 0 59674 67500.00000 0 9764397.980 -20697650.133 11258052.363 10 0 59674 68400.00000 0 10408057.642 -21727964.110 8365999.993 10 0 59674 69300.00000 0 10775777.322 -22495351.361 5311338.943 10 0 59674 70200.00000 0 10899525.251 -22953939.797 2153427.278 10 0 59674 71100.00000 0 10820379.069 -23067348.350 -1046350.006 10 0 59674 72000.00000 0 10586551.209 -22810310.903 -4225778.651 10 0 59674 72900.00000 0 10251120.766 -22169851.420 -7323030.314 10 0 59674 73800.00000 0 9869568.728 -21145959.771 -10277870.900 10 0 59674 74700.00000 0 9497221.793 -19751738.963 -13032837.659 10 0 59674 75600.00000 0 9186713.920 -18013016.804 -15534361.515 10 0 59674 76500.00000 0 8985573.863 -15967437.743 -17733812.264 10 0 59674 77400.00000 0 8934041.482 -13663072.561 -19588445.927 10 0 59674 78300.00000 0 9063205.713 -11156603.840 -21062235.805 10 0 59674 79200.00000 0 9393543.304 -8511162.807 -22126571.250 10 0 59674 80100.00000 0 9933920.296 -5793907.684 -22760810.866 10 0 59674 81000.00000 0 10681098.600 -3073444.197 -22952679.857 10 0 59674 81900.00000 0 11619768.648 -417195.187 -22698504.321 10 0 59674 82800.00000 0 12723106.951 2111171.664 -22003278.344 10 0 59674 83700.00000 0 13953835.284 4454151.842 -20880562.997 10 0 59674 84600.00000 0 15265737.273 6562548.493 -19352219.380 10 0 59674 85500.00000 0 16605568.813 8397265.218 -17447981.067 99